GCRR

Lanzarote

Airport
ICAO code
GCRR
Summary
ICAO Region
EUR
ICAO Territory
Location

Arrecife,

Coordinates
28° 56' 44" N , 13° 36' 19" W
KCC
Metar
GCRR 300930Z 33011KT 290V010 9999 BKN024 21/15 Q1014

Description

Airport serving the island of Lanzarote.

Climatology

Dry-summer subtropical ”Mediterranean" climate (Köppen climate classification Csa) - characterized by hot, dry summers and mild winters. During the summer, subtropical high pressure cells dominate, making rainfall unlikely except for the occasional thunderstorm. In the winter, periodic storms bring rain (snow at higher elevations).

Runways

Designator Length Width Surface Rops
3/21 2400 45 ASP Yes/Yes

Airport map

Aerial View

SKYbrary Partners:

Safety knowledge contributed by: